Satellite: NOAA-12 Catalog number: 21263 Epoch time: 13003.64915928 Element set: 670 Inclination: 098.7123 deg RA of node: 030.2197 deg Eccentricity: 0.0013652 Arg of perigee: 342.8255 deg Mean anomaly: 017.2461 deg Mean motion: 14.25540084 rev/day Decay rate: 7.9e-07 rev/day^2 Epoch rev: 12511 Checksum: 270
Satellite: MET-3/5 Catalog number: 21655 Epoch time: 13003.85604986 Element set: 588 Inclination: 082.5557 deg RA of node: 010.4037 deg Eccentricity: 0.0013620 Arg of perigee: 175.8383 deg Mean anomaly: 184.2855 deg Mean motion: 13.17046893 rev/day Decay rate: -2.87e-06 rev/day^2 Epoch rev: 2830 Checksum: 311
Satellite: MET-2/21 Catalog number: 22782 Epoch time: 13003.19948385 Element set: 627 Inclination: 082.5475 deg RA of node: 233.8121 deg Eccentricity: 0.0021369 Arg of perigee: 313.3770 deg Mean anomaly: 197.5109 deg Mean motion: 13.83696061 rev/day Decay rate: 2.4e-07 rev/day^2 Epoch rev: 97682 Checksum: 315
Satellite: OKEAN-4 Catalog number: 23317 Epoch time: 13003.22506206 Element set: 100 Inclination: 082.5381 deg RA of node: 204.1328 deg Eccentricity: 0.0022842 Arg of perigee: 053.0874 deg Mean anomaly: 307.2430 deg Mean motion: 14.84179764 rev/day Decay rate: 4.80e-06 rev/day^2 Epoch rev: 98447 Checksum: 267
Satellite: NOAA-14 Catalog number: 23455 Epoch time: 13003.60013355 Element set: 151 Inclination: 098.8160 deg RA of node: 090.4653 deg Eccentricity: 0.0010220 Arg of perigee: 102.9768 deg Mean anomaly: 257.2547 deg Mean motion: 14.13887910 rev/day Decay rate: -4.0e-08 rev/day^2 Epoch rev: 92911 Checksum: 271
Satellite: NOAA-15 Catalog number: 25338 Epoch time: 13003.50376355 Element set: 556 Inclination: 098.7099 deg RA of node: 354.7306 deg Eccentricity: 0.0009798 Arg of perigee: 245.0724 deg Mean anomaly: 114.9446 deg Mean motion: 14.25164199 rev/day Decay rate: 1.60e-06 rev/day^2 Epoch rev: 76138 Checksum: 324
Satellite: RESURS Catalog number: 25394 Epoch time: 13003.13512889 Element set: 273 Inclination: 098.3426 deg RA of node: 347.0641 deg Eccentricity: 0.0001812 Arg of perigee: 054.2071 deg Mean anomaly: 009.4682 deg Mean motion: 14.24315270 rev/day Decay rate: 4.5e-07 rev/day^2 Epoch rev: 75286 Checksum: 272
Satellite: FENGYUN1 Catalog number: 25730 Epoch time: 13003.52273351 Element set: 777 Inclination: 098.8649 deg RA of node: 325.2431 deg Eccentricity: 0.0021455 Arg of perigee: 146.0408 deg Mean anomaly: 328.7279 deg Mean motion: 14.09998053 rev/day Decay rate: 2.049e-05 rev/day^2 Epoch rev: 70283 Checksum: 307
Satellite: OKEAN-0 Catalog number: 25860 Epoch time: 13003.89159227 Element set: 832 Inclination: 097.9678 deg RA of node: 328.7844 deg Eccentricity: 0.0000978 Arg of perigee: 077.4754 deg Mean anomaly: 338.5774 deg Mean motion: 14.74439067 rev/day Decay rate: 4.12e-06 rev/day^2 Epoch rev: 72414 Checksum: 341
Satellite: NOAA-16 Catalog number: 26536 Epoch time: 13003.46165302 Element set: 35 Inclination: 099.0674 deg RA of node: 054.4075 deg Eccentricity: 0.0009965 Arg of perigee: 237.4832 deg Mean anomaly: 122.5383 deg Mean motion: 14.12826473 rev/day Decay rate: 4.16e-06 rev/day^2 Epoch rev: 63331 Checksum: 288
Satellite: NOAA-17 Catalog number: 27453 Epoch time: 13003.41988367 Element set: 973 Inclination: 098.3207 deg RA of node: 026.1778 deg Eccentricity: 0.0010740 Arg of perigee: 291.5062 deg Mean anomaly: 068.4976 deg Mean motion: 14.24527059 rev/day Decay rate: 1.24e-06 rev/day^2 Epoch rev: 54726 Checksum: 318
Satellite: NOAA-18 Catalog number: 28654 Epoch time: 13003.43067461 Element set: 455 Inclination: 099.0765 deg RA of node: 329.4810 deg Eccentricity: 0.0013933 Arg of perigee: 314.8368 deg Mean anomaly: 045.1661 deg Mean motion: 14.11753699 rev/day Decay rate: 1.17e-06 rev/day^2 Epoch rev: 39281 Checksum: 312
Satellite: NOAA-19 Catalog number: 33591 Epoch time: 13003.41274133 Element set: 640 Inclination: 098.8871 deg RA of node: 306.9236 deg Eccentricity: 0.0014153 Arg of perigee: 172.1577 deg Mean anomaly: 187.9820 deg Mean motion: 14.11438384 rev/day Decay rate: -9.5e-07 rev/day^2 Epoch rev: 20125 Checksum: 295
/EX SB KEPS @ AMSAT $ORB13003.M Orbital Elements 13003.MISC
HR AMSAT ORBITAL ELEMENTS FOR MANNED AND MISCELLANEOUS SATELLITES FROM WA5QGD FORT WORTH,TX January 3, 2013 BID: ORB13003.M TO ALL RADIO AMATEURS BT
Satellite: HUBBLE Catalog number: 20580 Epoch time: 13003.15006309 Element set: 146 Inclination: 028.4703 deg RA of node: 274.3499 deg Eccentricity: 0.0003046 Arg of perigee: 034.9663 deg Mean anomaly: 325.1126 deg Mean motion: 15.03172912 rev/day Decay rate: 1.315e-05 rev/day^2 Epoch rev: 4483 Checksum: 251
Satellite: ISS Catalog number: 25544 Epoch time: 13003.92960049 Element set: 954 Inclination: 051.6457 deg RA of node: 204.3137 deg Eccentricity: 0.0016410 Arg of perigee: 119.4792 deg Mean anomaly: 030.6842 deg Mean motion: 15.51872166 rev/day Decay rate: 6.001e-05 rev/day^2 Epoch rev: 80919 Checksum: 284
Satellite: CO-58 Catalog number: 28895 Epoch time: 13003.09750272 Element set: 370 Inclination: 097.8889 deg RA of node: 226.2931 deg Eccentricity: 0.0016619 Arg of perigee: 240.8313 deg Mean anomaly: 119.1220 deg Mean motion: 14.60912640 rev/day Decay rate: 4.99e-06 rev/day^2 Epoch rev: 38284 Checksum: 318
Satellite: FALCON Catalog number: 30776 Epoch time: 13003.77827815 Element set: 521 Inclination: 035.4305 deg RA of node: 130.1311 deg Eccentricity: 0.0001959 Arg of perigee: 310.4811 deg Mean anomaly: 203.5747 deg Mean motion: 15.09246543 rev/day Decay rate: 5.107e-05 rev/day^2 Epoch rev: 32055 Checksum: 258
Satellite: MAST Catalog number: 31126 Epoch time: 13003.92315172 Element set: 649 Inclination: 097.8743 deg RA of node: 009.3040 deg Eccentricity: 0.0092907 Arg of perigee: 204.3602 deg Mean anomaly: 155.3196 deg Mean motion: 14.54396791 rev/day Decay rate: 2.66e-06 rev/day^2 Epoch rev: 30344 Checksum: 283
Satellite: CAPE1 Catalog number: 31130 Epoch time: 13003.22726007 Element set: 660 Inclination: 097.8874 deg RA of node: 004.9660 deg Eccentricity: 0.0100221 Arg of perigee: 221.2446 deg Mean anomaly: 138.1141 deg Mean motion: 14.53254383 rev/day Decay rate: 4.25e-06 rev/day^2 Epoch rev: 30282 Checksum: 241
Satellite: COMPASS Catalog number: 32787 Epoch time: 13003.82382137 Element set: 508 Inclination: 097.7761 deg RA of node: 066.5396 deg Eccentricity: 0.0016395 Arg of perigee: 122.6047 deg Mean anomaly: 304.8604 deg Mean motion: 14.84842771 rev/day Decay rate: 1.803e-05 rev/day^2 Epoch rev: 25357 Checksum: 312
Satellite: AAUSAT2 Catalog number: 32788 Epoch time: 13003.81214206 Element set: 499 Inclination: 097.7770 deg RA of node: 067.0342 deg Eccentricity: 0.0015857 Arg of perigee: 122.5280 deg Mean anomaly: 302.3416 deg Mean motion: 14.85241540 rev/day Decay rate: 1.981e-05 rev/day^2 Epoch rev: 25360 Checksum: 284
Satellite: DO-64 Catalog number: 32789 Epoch time: 13003.82206034 Element set: 520 Inclination: 097.7908 deg RA of node: 069.9331 deg Eccentricity: 0.0015437 Arg of perigee: 117.8406 deg Mean anomaly: 306.8583 deg Mean motion: 14.87337213 rev/day Decay rate: 3.086e-05 rev/day^2 Epoch rev: 25368 Checksum: 318
Satellite: CO-66 Catalog number: 32791 Epoch time: 13003.22128942 Element set: 496 Inclination: 097.7769 deg RA of node: 065.5089 deg Eccentricity: 0.0016763 Arg of perigee: 124.8650 deg Mean anomaly: 267.4294 deg Mean motion: 14.84104627 rev/day Decay rate: 1.340e-05 rev/day^2 Epoch rev: 25340 Checksum: 319
Satellite: RS-30 Catalog number: 32953 Epoch time: 13003.54384731 Element set: 469 Inclination: 082.4997 deg RA of node: 170.5558 deg Eccentricity: 0.0018178 Arg of perigee: 230.4368 deg Mean anomaly: 129.5106 deg Mean motion: 12.43030710 rev/day Decay rate: 1.0e-07 rev/day^2 Epoch rev: 20945 Checksum: 284
Satellite: PHARMSAT Catalog number: 35002 Epoch time: 12226.86484473 Element set: 78 Inclination: 040.4341 deg RA of node: 050.6671 deg Eccentricity: 0.0012079 Arg of perigee: 300.9773 deg Mean anomaly: 059.0492 deg Mean motion: 16.39309245 rev/day Decay rate: 7.728342e-02 rev/day^2 Epoch rev: 18355 Checksum: 302
Satellite: METEOR-M Catalog number: 35865 Epoch time: 13003.77320493 Element set: 107 Inclination: 098.6276 deg RA of node: 060.0455 deg Eccentricity: 0.0002236 Arg of perigee: 171.5495 deg Mean anomaly: 188.5719 deg Mean motion: 14.21877508 rev/day Decay rate: -2.7e-07 rev/day^2 Epoch rev: 17110 Checksum: 293
Satellite: RS-38 Catalog number: 35869 Epoch time: 13003.76345950 Element set: 73 Inclination: 098.6229 deg RA of node: 059.9938 deg Eccentricity: 0.0004211 Arg of perigee: 181.8892 deg Mean anomaly: 178.2270 deg Mean motion: 14.22107004 rev/day Decay rate: 2.3e-07 rev/day^2 Epoch rev: 17112 Checksum: 298
Satellite: JUGNU Catalog number: 37839 Epoch time: 13003.29186783 Element set: 305 Inclination: 019.9606 deg RA of node: 225.9225 deg Eccentricity: 0.0018544 Arg of perigee: 267.0377 deg Mean anomaly: 092.7912 deg Mean motion: 14.12117522 rev/day Decay rate: 6.20e-06 rev/day^2 Epoch rev: 6356 Checksum: 294
Satellite: SRMSAT Catalog number: 37841 Epoch time: 13002.91170186 Element set: 305 Inclination: 019.9685 deg RA of node: 237.0267 deg Eccentricity: 0.0012085 Arg of perigee: 222.9970 deg Mean anomaly: 136.9490 deg Mean motion: 14.10191625 rev/day Decay rate: 2.64e-06 rev/day^2 Epoch rev: 6341 Checksum: 279
Satellite: RAX-2 Catalog number: 37853 Epoch time: 13003.91739817 Element set: 389 Inclination: 101.7059 deg RA of node: 141.7240 deg Eccentricity: 0.0240188 Arg of perigee: 137.8753 deg Mean anomaly: 224.1186 deg Mean motion: 14.82017421 rev/day Decay rate: 5.397e-05 rev/day^2 Epoch rev: 6410 Checksum: 297
